Wind_Speed
11 11 12 13 14 14 15 15 16 16 16 17 17 17 17 18 18 18 19 19 19 19 19 19 19 18 18 18 17 17 17 17 17 18 18 18 19 19 20 20 21 21 22 22 23 23 24 25 25 26 26 27 27 28 28 29 30 31 31 32 32 33 32 32 31 30 29 28 27
11 12 13 13 14 15 15 15 16 16 16 16 17 17 17 17 17 18 18 18 18 18 18 18 18 17 17 17 17 17 17 17 17 18 18 18 19 19 20 20 21 22 22 23 23 24 25 25 26 27 27 28 29 29 30 30 31 32 33 33 33 34 33 32 31 31 30 29 28
12 13 13 14 14 15 15 15 15 16 16 16 17 17 17 17 17 18 18 18 18 18 17 17 17 17 16 16 16 16 17 17 17 18 18 19 19 20 20 21 21 22 23 23 24 25 26 26 27 28 29 29 30 31 31 32 32 33 34 34 34 34 34 33 32 32 31 30 30
12 13 13 14 14 14 14 15 15 16 16 16 17 17 17 17 17 17 17 17 17 17 17 16 16 16 16 16 16 17 17 17 17 18 18 19 19 20 20 21 22 23 23 24 25 26 27 27 28 29 30 31 31 32 32 33 34 34 35 35 35 35 34 33 32 32 32 31 31
12 13 13 13 14 14 14 15 15 15 16 16 16 16 17 17 17 17 17 17 17 16 16 16 16 16 16 16 16 17 17 17 18 18 18 19 19 20 21 22 23 23 24 25 26 27 28 29 30 30 31 32 33 33 33 34 34 35 36 36 36 35 35 33 33 32 32 32 31
12 12 13 13 13 14 14 15 15 15 16 16 16 16 16 17 17 17 17 16 16 16 16 16 16 16 16 16 16 17 17 17 18 18 19 19 20 21 22 22 23 24 25 26 27 28 29 30 31 32 32 33 33 34 34 34 35 36 36 36 36 35 35 34 33 33 33 32 31
11 12 12 12 13 13 14 14 15 15 16 16 15 15 16 16 16 16 16 16 16 16 16 16 16 16 16 16 17 17 17 18 18 19 19 20 21 21 22 23 24 25 26 27 28 29 30 31 32 33 33 34 34 34 35 35 36 36 36 36 36 35 34 34 34 33 32 32 31
11 11 12 12 13 13 14 14 15 15 15 15 15 15 15 15 15 15 16 16 16 16 16 16 16 16 16 17 17 17 17 18 18 19 20 21 21 22 23 24 25 26 27 28 29 30 31 32 32 33 34 34 35 35 36 36 37 37 36 36 36 35 34 34 34 33 32 31 31
10 11 11 12 13 13 13 14 14 14 14 14 14 14 14 15 15 15 15 16 16 16 16 16 16 17 17 17 17 17 18 18 19 20 20 21 22 23 24 25 26 27 28 29 30 31 32 32 33 34 34 35 35 36 36 37 37 37 36 36 36 35 35 34 33 32 31 31 31
10 11 11 12 12 13 13 13 14 14 14 13 14 14 14 14 14 15 15 16 16 16 16 17 17 17 17 17 17 18 18 19 20 20 21 22 23 24 25 26 27 28 29 30 31 32 33 33 34 34 35 35 36 37 37 37 37 36 36 36 35 35 35 34 32 32 31 31 31
10 10 11 11 12 12 13 13 13 13 13 13 13 13 14 14 14 15 15 16 16 16 17 17 17 17 17 17 18 18 19 19 20 21 22 23 24 25 26 27 28 29 30 31 32 33 34 34 35 35 36 36 36 37 37 37 36 36 36 36 35 35 34 33 32 31 31 31 31
10 10 11 11 12 12 12 12 12 13 13 13 13 13 13 14 14 15 16 16 16 17 17 17 17 17 17 18 18 19 19 20 21 22 23 24 25 26 27 28 29 30 31 32 33 34 34 35 36 36 36 37 37 37 37 37 37 36 36 35 35 34 33 33 32 32 31 31 31
10 10 11 11 11 12 12 12 12 12 12 13 13 13 13 14 14 15 16 16 17 17 17 17 17 17 18 18 18 19 20 21 22 23 24 25 26 27 28 29 30 31 32 33 33 34 35 36 36 37 37 37 37 37 37 36 36 36 35 35 34 33 32 32 32 32 31 31 31
10 10 11 11 11 11 11 12 12 12 12 13 13 13 14 14 15 15 16 17 17 17 17 17 17 17 18 18 19 20 21 22 23 24 25 26 27 28 29 30 31 32 33 33 34 35 35 36 36 37 37 37 37 37 36 36 36 35 35 34 33 33 32 32 32 31 31 31 31
11 11 11 11 11 11 12 12 12 12 13 13 13 13 14 14 15 16 17 17 17 17 17 17 17 18 18 19 20 21 22 23 24 25 26 27 28 29 30 31 32 32 33 34 35 35 35 36 36 36 37 37 37 37 36 36 36 35 34 33 32 32 32 32 31 31 30 30 30
11 11 11 11 11 12 12 12 12 13 13 13 13 14 14 15 16 17 17 17 17 17 17 17 18 18 19 19 20 21 22 23 24 26 27 28 29 30 31 32 32 33 34 35 35 36 36 36 36 36 36 36 37 37 36 36 35 34 33 32 32 31 31 31 31 30 30 30 30
11 11 12 12 12 12 13 13 13 13 13 13 13 14 15 16 17 17 18 18 18 17 17 17 18 19 19 20 21 22 23 24 25 26 27 29 30 31 32 33 33 34 35 35 36 36 36 36 36 36 36 36 36 36 36 36 35 34 32 32 31 31 31 30 30 30 30 30 29
11 12 12 12 13 13 13 13 13 13 13 13 14 15 16 17 18 18 18 18 18 17 17 18 18 19 20 21 22 23 24 25 26 27 28 29 31 32 33 33 34 35 35 36 36 36 36 36 36 36 36 36 36 36 36 35 34 33 32 31 31 31 30 30 30 29 29 29 29
12 12 13 13 13 13 13 13 13 13 13 14 14 16 17 18 18 18 18 18 18 17 18 18 19 19 20 21 23 24 25 26 27 28 29 30 32 33 33 34 35 35 36 36 36 36 36 36 36 35 36 36 36 36 35 34 33 32 32 31 31 31 30 30 29 29 29 29 29
12 13 13 13 14 13 13 13 13 13 13 14 15 17 18 18 19 19 18 18 18 18 18 18 19 20 21 22 23 25 26 27 28 29 30 31 32 33 34 35 36 36 36 36 36 36 35 35 35 35 36 36 36 36 35 34 33 32 32 31 31 31 30 30 30 29 29 28 28
13 13 14 14 13 13 13 13 13 13 14 15 17 18 19 19 19 18 18 18 18 18 18 19 20 21 22 23 24 26 27 28 29 30 31 33 33 34 35 35 36 36 36 36 35 35 35 35 35 35 36 36 36 35 34 34 33 33 32 32 31 31 30 30 29 29 28 27 27
13 14 14 13 13 13 13 13 13 14 15 16 18 19 19 19 19 18 18 18 18 19 19 20 21 22 23 24 26 27 28 29 30 31 32 33 34 35 35 36 36 36 36 35 35 35 35 35 35 35 36 36 36 35 34 33 33 33 33 32 32 31 30 30 29 28 27 26 26
14 14 13 13 13 13 13 13 14 15 16 18 19 19 19 19 18 18 18 18 19 19 20 21 22 23 24 26 27 28 29 30 31 32 33 34 34 35 35 35 36 36 35 35 34 34 34 35 36 36 36 36 36 35 34 34 33 33 33 32 32 31 30 29 28 27 26 26 25
14 13 13 13 13 13 13 14 15 16 17 18 19 19 18 18 18 18 18 19 19 20 21 22 23 24 26 27 28 29 30 31 32 33 34 34 35 35 35 35 35 35 35 34 34 34 34 35 36 36 36 36 35 35 34 33 33 32 32 32 32 31 30 28 27 26 25 25 25
13 13 13 13 13 14 14 15 16 17 18 19 19 18 18 18 18 18 19 19 20 21 22 23 25 26 27 28 29 30 31 32 33 34 34 35 35 35 35 35 35 35 35 34 34 34 34 34 35 36 36 35 35 34 34 33 32 31 31 31 30 30 29 28 27 26 25 25 25
12 12 13 13 14 14 15 16 17 18 19 19 18 18 18 18 18 19 19 20 21 22 23 25 26 27 28 29 30 31 32 33 33 34 35 35 35 35 35 35 35 35 34 34 34 34 35 35 35 35 34 34 33 33 33 32 32 31 30 29 28 28 27 27 26 26 25 25 25
12 12 13 14 15 16 17 18 18 19 19 18 18 18 18 18 19 19 20 21 22 23 24 26 27 28 29 30 31 32 32 33 34 34 35 35 35 35 35 35 35 34 34 34 35 35 35 36 36 35 33 32 31 31 31 31 31 30 29 27 27 26 25 25 26 26 26 26 26
12 13 14 15 16 17 18 18 18 18 18 18 18 18 18 19 19 20 21 22 23 24 25 27 28 29 30 31 32 32 33 34 34 35 35 35 35 35 35 35 35 35 35 35 35 36 36 36 36 34 33 31 30 29 30 30 29 28 27 26 25 25 25 25 25 26 26 27 27
13 14 15 16 17 18 18 18 18 18 17 17 18 18 19 19 20 21 22 23 24 25 26 28 29 30 31 31 32 33 34 34 35 35 35 35 35 35 35 35 35 35 35 36 36 36 37 36 35 34 32 30 28 28 28 28 28 27 26 25 24 24 24 25 25 26 26 27 27
14 15 16 17 18 18 18 18 17 17 17 17 18 18 19 20 21 22 23 24 25 26 28 29 30 31 31 32 33 34 34 35 35 35 35 35 35 35 35 35 36 36 36 37 37 37 36 36 34 33 31 29 27 27 27 27 26 26 25 24 24 24 24 25 26 26 26 27 27
15 16 17 18 18 18 17 17 17 17 17 18 18 19 20 21 22 23 24 25 26 28 29 30 31 31 32 33 34 34 35 35 35 35 35 35 35 35 35 36 36 37 37 37 37 37 36 35 33 32 30 28 27 26 26 26 25 24 24 24 24 24 25 25 26 26 26 27 27
16 17 18 18 17 17 17 16 16 17 17 18 19 20 21 22 23 24 25 26 28 29 30 31 31 32 33 34 34 35 35 35 35 35 35 35 35 36 36 36 37 37 37 37 37 36 35 34 32 30 29 27 26 26 25 25 24 24 23 24 24 25 25 25 25 26 26 27 27
18 18 18 18 17 16 16 16 16 17 18 19 20 21 22 23 24 25 26 27 28 30 30 31 32 33 34 34 35 35 36 36 35 35 35 35 35 35 36 36 37 37 37 37 36 35 34 33 31 29 27 26 26 25 24 24 23 23 23 24 24 25 25 25 26 26 26 27 27
19 18 18 17 16 16 16 16 17 18 19 20 20 22 23 24 25 26 27 28 29 30 31 32 33 33 34 35 35 36 36 36 36 35 35 35 36 36 36 36 37 37 37 37 36 34 33 31 30 28 26 26 25 25 24 24 23 23 24 24 25 25 25 25 25 26 26 26 26
19 18 17 16 15 15 16 16 17 18 19 20 22 23 24 25 26 27 29 30 31 31 32 33 33 34 35 35 35 36 36 36 36 35 35 35 36 36 36 36 37 37 37 36 35 33 31 30 28 27 26 25 25 24 24 24 24 24 24 25 25 25 25 25 25 26 26 26 26
18 17 16 15 15 16 16 17 18 19 20 21 23 24 25 26 27 28 29 31 32 32 33 34 34 35 35 35 36 36 35 36 36 36 36 36 36 36 37 37 37 37 37 35 34 32 30 29 27 26 25 25 25 24 24 24 24 25 25 25 25 25 25 25 25 25 25 26 26
17 16 15 15 15 16 17 18 19 20 21 22 24 25 26 27 28 29 30 31 32 33 34 34 35 35 35 36 36 36 36 35 36 36 36 36 36 37 37 38 38 37 36 35 33 31 29 28 26 25 25 25 25 25 25 25 25 25 25 25 25 25 25 25 25 25 26 26 27
16 15 15 15 16 17 18 19 20 21 22 24 25 26 27 28 29 30 31 32 33 33 34 35 35 35 36 36 36 36 36 35 35 36 36 36 36 37 38 38 38 37 35 33 32 30 28 27 25 24 24 24 25 25 25 25 24 24 25 25 25 25 25 25 25 26 26 27 29
15 15 15 16 17 18 19 20 21 22 23 25 26 27 28 29 30 30 31 32 33 34 35 35 36 36 36 36 36 36 36 36 36 36 36 36 37 37 38 38 38 36 34 32 30 29 27 25 24 24 23 24 24 25 25 25 24 24 25 25 25 26 26 26 26 27 28 28 29
15 15 16 17 18 19 20 21 22 23 24 26 27 28 29 29 30 31 32 33 33 34 35 35 36 36 36 36 36 36 36 36 36 36 37 37 38 38 38 37 36 34 31 29 28 27 26 25 24 23 23 23 24 25 25 25 25 25 25 25 26 26 27 27 28 29 30 31 30
15 16 17 17 18 20 21 22 23 24 25 26 27 28 29 30 31 31 32 33 34 34 35 35 36 36 35 35 36 36 36 37 37 37 37 38 38 37 36 34 33 31 28 26 26 25 25 24 23 22 22 23 24 24 24 24 24 24 25 25 26 27 28 30 31 32 32 31 29
Wind_Direction
18 18 16 14 12 10 8 6 4 2 360 358 356 353 350 348 345 342 339 338 338 338 339 340 341 341 342 343 344 344 344 344 344 344 344 344 344 344 343 343 343 343 343 343 343 343 342 342 342 342 342 342 341 341 340 339 338 338 337 337 336 335 334 333 332 331 329 328 325
20 18 15 13 11 9 7 5 3 1 359 357 354 352 349 346 343 340 338 338 338 338 339 340 341 341 342 342 342 342 342 342 342 342 342 342 342 342 342 342 342 342 342 342 342 342 342 341 341 341 341 341 340 340 339 338 338 337 337 336 335 334 333 333 331 330 329 327 326
19 17 15 13 11 9 7 4 3 0 358 356 353 351 348 345 342 340 338 338 338 339 339 340 340 340 341 341 340 341 340 340 340 340 340 340 341 341 341 342 342 342 342 342 341 341 341 341 341 340 340 340 340 339 338 338 337 336 336 335 334 333 333 332 330 329 328 327 326
18 16 15 13 11 8 6 4 2 360 357 354 352 349 346 344 341 339 338 338 339 340 340 340 340 340 339 339 339 339 339 339 339 338 339 339 340 340 341 341 341 341 341 341 341 341 341 340 340 340 340 339 339 339 338 337 336 335 334 333 333 333 332 331 329 329 327 326 325
16 15 13 12 10 8 6 4 2 359 356 353 350 347 345 342 340 339 339 339 340 340 339 339 339 339 338 338 338 337 337 337 337 338 338 339 340 340 341 341 341 341 341 341 340 340 340 340 339 339 339 339 338 338 337 336 335 334 333 332 332 331 331 330 328 328 327 326 325
15 14 12 11 9 7 5 3 1 358 354 351 348 346 343 341 340 339 339 339 339 338 338 338 338 337 337 336 336 336 336 336 337 337 338 339 339 340 340 341 341 340 340 340 340 340 340 339 339 339 338 338 337 337 336 335 334 332 331 331 330 330 330 329 328 327 326 325 325
15 15 13 11 9 7 5 2 359 356 352 349 346 343 341 340 339 338 338 337 337 337 337 337 336 336 335 335 335 335 335 336 337 337 338 339 340 340 340 340 340 340 340 340 339 339 339 339 338 338 338 337 336 335 334 333 332 331 330 330 329 329 329 328 327 327 326 325 323
16 15 12 10 7 5 3 1 357 354 350 346 343 341 339 338 337 336 336 336 336 335 335 335 335 334 334 334 334 334 335 336 337 337 338 339 339 339 339 339 339 339 339 339 339 339 338 338 338 337 337 336 334 333 332 331 331 330 330 329 329 328 328 328 328 327 325 324 322
17 14 10 7 5 3 1 358 355 351 346 342 339 337 336 335 335 335 335 334 334 334 334 334 334 333 333 333 333 334 335 336 337 338 338 339 339 339 339 339 339 339 339 338 338 338 337 337 337 336 335 334 333 332 331 330 330 330 329 328 328 328 328 328 328 327 324 322 320
17 13 9 5 2 359 357 355 351 347 342 337 335 334 334 333 333 333 333 333 332 333 333 333 332 332 332 332 333 334 335 336 337 338 338 339 339 339 338 338 338 338 338 338 337 337 336 336 335 334 333 332 331 330 330 330 330 329 328 327 327 327 327 327 327 325 323 320 318
14 11 7 2 358 355 353 350 347 342 337 333 331 331 331 332 332 332 332 332 332 332 332 331 331 331 331 332 333 334 336 337 338 338 338 339 338 338 338 338 338 338 337 337 336 336 335 335 333 333 332 331 330 330 330 329 329 328 328 327 327 327 327 326 325 323 321 318 317
13 8 3 358 354 351 349 346 341 337 333 329 328 329 329 330 330 331 331 332 331 331 330 330 330 330 331 332 334 335 336 337 338 338 338 338 338 338 338 338 337 337 337 336 336 335 334 333 332 332 331 330 330 330 329 329 328 328 327 327 327 326 325 324 323 321 319 317 315
11 5 360 354 350 346 343 340 336 332 328 326 326 327 327 328 329 330 330 330 329 329 329 329 329 330 331 333 334 335 337 338 338 338 338 338 338 338 337 337 337 336 336 335 335 334 334 333 332 331 330 330 329 329 329 328 328 327 327 326 325 324 323 322 321 320 318 315 313
8 3 357 351 346 342 338 335 331 327 325 324 324 325 326 326 328 328 329 328 328 327 328 328 329 330 332 333 335 336 337 337 338 338 338 338 337 337 337 336 336 336 335 335 334 334 333 332 331 331 330 329 328 328 328 328 327 327 326 325 324 322 321 320 319 317 315 313 312
6 0 354 348 343 339 334 331 326 323 322 322 323 324 324 325 326 327 327 327 327 327 327 328 329 331 332 334 335 336 337 337 337 337 337 337 336 336 336 335 335 335 334 334 334 333 332 332 331 330 329 329 328 328 327 327 327 326 325 323 322 320 319 317 316 315 313 311 309
1 357 352 347 341 336 331 327 322 320 319 320 321 322 323 324 325 326 326 326 326 326 327 328 329 331 332 334 335 336 336 336 336 336 336 335 335 335 335 335 335 334 334 333 333 332 332 331 330 329 329 328 327 327 327 327 326 325 324 322 320 318 316 315 314 312 310 309 307
357 353 349 344 339 334 329 323 319 317 317 318 320 321 322 323 324 325 325 325 325 326 327 328 330 331 333 334 335 335 335 335 335 335 335 335 335 335 335 335 334 334 334 333 332 331 331 330 329 329 328 327 327 327 327 326 325 324 322 319 317 315 314 312 311 310 309 307 306
353 350 346 342 337 332 326 320 316 315 316 317 318 320 321 322 323 324 324 324 324 325 326 328 329 331 332 334 334 334 334 334 334 335 335 335 335 335 335 334 334 334 333 332 332 331 330 330 329 328 328 327 327 327 326 326 324 322 319 317 315 313 312 310 309 307 307 306 306
349 346 343 340 335 330 323 317 315 315 316 317 318 319 321 321 322 322 323 323 323 324 326 327 329 331 332 333 333 333 334 334 334 334 335 335 335 335 335 334 334 333 332 332 331 331 330 329 329 328 328 327 327 327 326 325 323 320 318 316 314 312 310 309 308 307 306 305 305
346 344 341 337 333 327 320 315 314 315 317 318 318 319 320 320 321 321 321 321 322 323 325 326 328 330 331 332 332 332 333 333 334 334 335 335 335 335 334 334 333 332 332 331 331 330 330 329 328 328 327 327 327 326 325 324 321 319 316 315 313 311 310 308 307 306 306 305 305
344 341 338 335 330 322 316 313 315 317 318 319 318 319 319 319 319 319 319 320 321 322 324 326 328 330 331 331 331 332 333 333 334 335 335 335 335 335 334 333 332 331 331 331 331 330 329 329 328 328 327 327 327 326 325 323 320 318 316 314 312 311 309 308 307 307 306 306 305
342 340 336 331 325 318 314 314 316 318 319 318 318 317 317 317 317 317 318 318 320 322 324 326 328 329 330 331 331 332 333 334 335 335 335 335 335 334 333 332 331 331 330 331 330 330 329 328 328 328 328 328 327 326 324 321 319 317 315 313 312 311 310 309 308 307 307 306 306
340 338 333 327 320 315 313 315 316 318 317 317 316 316 316 315 315 316 316 318 320 322 325 327 328 329 330 331 332 333 334 335 335 335 335 334 334 333 332 331 330 330 330 330 330 329 329 328 328 328 328 328 327 325 322 320 317 316 314 313 312 311 310 309 308 308 307 307 307
339 335 329 322 316 313 312 314 315 316 316 315 315 314 314 314 314 315 316 318 321 323 325 327 328 329 330 331 333 334 334 335 335 334 334 333 332 331 330 330 329 329 329 329 329 329 329 329 329 329 329 328 326 323 321 318 317 315 313 312 312 311 310 309 309 309 308 308 308
336 331 325 318 314 312 312 313 314 314 313 313 313 313 312 312 313 315 316 319 321 324 326 327 328 330 331 332 333 334 335 334 334 333 332 331 331 330 329 329 329 329 329 329 329 329 329 329 329 329 328 327 324 322 319 317 315 314 313 312 311 311 310 310 310 309 309 309 309
332 327 321 316 313 312 312 312 312 312 312 312 311 311 311 312 313 315 318 320 323 325 326 328 329 330 332 333 333 334 334 333 332 331 331 330 329 329 329 329 329 329 329 329 329 329 329 329 329 329 328 326 323 320 317 316 315 313 312 312 311 310 310 310 310 310 310 309 309
326 322 318 315 313 312 312 311 311 311 310 310 310 310 311 312 314 317 319 322 324 325 327 328 330 331 332 332 333 333 332 331 331 330 329 329 328 328 328 328 328 328 328 328 328 329 329 329 329 329 327 325 322 318 316 315 314 314 312 311 310 310 309 309 310 310 310 310 310
320 317 315 314 313 312 311 310 310 310 309 309 309 310 311 313 316 318 321 323 324 326 327 329 330 331 331 332 332 331 331 330 329 329 329 328 328 328 328 328 328 328 328 328 329 329 329 329 329 329 327 325 321 318 316 315 314 313 312 311 310 309 309 309 310 310 310 310 310
314 313 313 312 312 311 310 309 309 308 308 308 309 310 312 315 317 320 322 324 325 326 328 329 330 331 331 331 330 330 329 329 328 328 328 328 328 328 328 328 327 328 328 329 330 330 330 330 329 328 327 325 321 318 316 315 313 312 311 310 309 309 309 309 309 310 309 309 309
311 311 311 311 310 310 309 308 307 307 307 308 310 312 314 317 319 321 323 324 326 327 328 329 329 330 330 329 329 328 328 328 328 328 328 328 328 328 328 327 327 328 329 330 331 330 330 329 329 328 327 325 322 319 316 315 313 312 310 309 309 309 309 309 309 309 308 308 308
309 309 310 310 309 308 307 307 306 307 307 309 311 313 316 318 320 322 323 325 326 327 328 328 329 329 328 328 328 328 327 327 328 328 328 328 328 327 327 327 328 329 330 331 331 330 330 329 329 328 327 325 323 320 317 316 313 311 309 308 308 309 309 308 308 308 307 307 308
308 308 308 308 308 307 306 305 306 306 308 311 313 315 317 319 321 323 324 325 326 327 327 328 328 327 327 327 327 327 327 327 328 328 328 328 328 327 327 328 328 330 330 331 331 330 330 329 329 328 327 326 325 322 319 315 313 311 309 308 308 308 308 308 307 307 307 307 307
307 307 307 307 306 305 304 305 306 307 310 312 315 317 319 320 322 323 324 325 326 327 327 327 326 326 326 326 326 327 327 327 328 328 328 328 328 327 328 328 329 330 330 331 330 330 330 329 329 329 329 328 326 323 319 315 313 311 309 309 308 308 308 308 307 306 306 306 306
306 307 306 305 304 304 304 305 307 309 312 314 316 318 320 322 322 324 324 325 325 325 325 325 326 326 326 326 326 327 327 327 328 328 328 328 328 328 328 328 329 329 330 330 330 330 330 330 330 330 330 329 326 322 318 315 313 311 310 309 309 308 308 308 307 306 306 306 305
305 305 304 303 303 303 305 307 309 312 314 316 318 320 321 322 323 324 324 324 324 324 324 324 325 325 325 326 326 327 327 327 327 328 328 328 328 328 328 328 328 329 330 330 330 330 330 331 332 333 332 330 325 321 319 316 314 312 311 311 310 309 308 308 307 306 306 305 304
304 303 302 302 303 305 307 309 312 314 316 318 319 321 322 322 323 323 323 323 324 324 324 324 324 325 325 326 326 326 327 327 327 327 328 328 328 328 328 327 328 329 329 330 330 331 332 333 334 334 332 328 324 321 318 316 314 313 313 312 311 310 309 309 308 307 306 305 304
302 301 301 302 304 307 310 312 315 316 318 319 320 321 322 322 322 323 323 323 323 323 323 323 324 325 325 325 326 326 326 327 327 327 328 328 328 328 327 327 328 328 329 331 331 333 334 335 335 334 330 325 323 321 318 316 315 314 314 313 312 311 310 309 309 308 307 306 306
301 301 302 305 307 311 313 315 317 318 319 320 321 321 321 321 322 322 322 322 323 323 323 323 324 324 325 325 325 325 326 326 327 327 328 328 328 328 327 327 328 329 330 331 332 333 334 335 334 331 326 323 322 320 319 317 316 315 314 314 312 311 311 310 310 309 308 307 308
300 302 305 309 312 314 316 318 319 319 320 320 320 320 320 321 321 321 321 322 322 322 322 323 323 324 324 325 325 325 326 326 327 327 328 327 327 328 328 328 328 329 330 331 332 332 332 332 330 327 324 323 322 320 319 318 316 315 315 314 313 312 312 311 311 310 310 310 311
302 306 309 313 315 317 318 319 320 320 320 320 320 320 320 320 320 320 321 321 321 321 322 322 323 324 324 325 325 325 325 326 327 327 328 328 328 328 329 329 329 329 330 330 330 329 328 327 326 324 324 323 322 321 320 319 317 316 315 314 314 313 313 312 312 312 312 313 314
306 310 314 316 318 319 320 320 320 320 319 319 319 319 319 319 320 320 320 320 321 321 321 322 323 323 324 324 325 325 326 326 327 327 328 328 329 329 329 329 329 328 327 325 325 324 324 324 323 323 323 322 322 321 321 320 318 316 316 315 314 314 314 314 315 315 316 316 315
Height
1498 1498 1498 1497 1497 1496 1496 1495 1495 1494 1494 1493 1492 1492 1491 1490 1489 1489 1488 1487 1486 1485 1484 1483 1482 1480 1479 1479 1478 1477 1476 1475 1474 1473 1472 1471 1469 1469 1467 1466 1465 1464 1463 1461 1460 1459 1458 1457 1455 1454 1453 1452 1450 1449 1448 1447 1445 1444 1442 1441 1440 1439 1437 1436 1434 1433 1432 1431 1429
1498 1497 1497 1497 1496 1496 1495 1495 1494 1494 1493 1492 1492 1491 1490 1489 1489 1488 1487 1486 1485 1484 1483 1482 1481 1480 1479 1478 1477 1476 1475 1474 1473 1472 1471 1470 1469 1468 1466 1465 1464 1463 1462 1460 1459 1458 1457 1455 1454 1453 1452 1450 1449 1448 1446 1445 1444 1442 1441 1439 1438 1437 1435 1434 1432 1431 1430 1429 1427
1497 1497 1496 1496 1496 1495 1495 1494 1494 1493 1492 1492 1491 1490 1489 1489 1488 1487 1486 1485 1484 1483 1482 1481 1480 1479 1478 1477 1476 1475 1474 1474 1473 1471 1470 1469 1468 1467 1466 1464 1463 1462 1461 1459 1458 1457 1456 1454 1453 1451 1450 1449 1448 1446 1445 1443 1442 1440 1439 1438 1436 1434 1433 1432 1430 1429 1428 1426 1425
1497 1496 1496 1496 1495 1495 1494 1494 1493 1492 1492 1491 1490 1489 1489 1488 1488 1487 1486 1484 1484 1483 1482 1481 1479 1479 1478 1477 1476 1474 1474 1473 1472 1471 1469 1468 1467 1466 1465 1464 1462 1461 1459 1458 1457 1456 1454 1453 1451 1450 1449 1447 1446 1444 1443 1442 1440 1439 1437 1436 1434 1433 1431 1430 1429 1427 1426 1424 1423
1496 1496 1496 1495 1495 1494 1494 1493 1492 1492 1491 1490 1489 1489 1488 1487 1487 1486 1485 1484 1483 1482 1481 1480 1479 1478 1477 1476 1475 1474 1473 1472 1471 1470 1469 1467 1466 1465 1464 1463 1461 1460 1459 1457 1456 1454 1453 1451 1450 1449 1447 1446 1444 1443 1441 1440 1439 1437 1435 1434 1433 1431 1430 1428 1427 1425 1424 1422 1421
1496 1495 1495 1495 1494 1494 1493 1492 1492 1491 1490 1490 1489 1488 1487 1487 1486 1485 1484 1483 1482 1481 1480 1479 1478 1477 1476 1475 1474 1473 1472 1471 1470 1469 1467 1466 1465 1464 1463 1461 1460 1459 1457 1456 1454 1453 1451 1450 1448 1447 1445 1444 1443 1441 1440 1439 1437 1435 1434 1432 1431 1429 1428 1427 1425 1424 1422 1420 1419
1495 1495 1494 1494 1494 1493 1492 1492 1491 1490 1490 1489 1488 1488 1487 1486 1485 1484 1483 1482 1481 1480 1479 1479 1477 1476 1475 1474 1473 1472 1471 1470 1469 1468 1466 1465 1464 1463 1461 1460 1459 1457 1456 1454 1453 1451 1450 1449 1447 1445 1444 1442 1441 1439 1438 1437 1435 1434 1432 1430 1429 1428 1426 1425 1423 1422 1420 1419 1417
1494 1494 1494 1493 1493 1492 1491 1491 1490 1489 1489 1488 1488 1487 1486 1485 1484 1484 1483 1482 1481 1479 1479 1478 1476 1475 1474 1473 1472 1471 1470 1469 1468 1466 1465 1464 1463 1461 1460 1459 1457 1456 1454 1453 1452 1450 1449 1447 1445 1444 1442 1441 1439 1438 1437 1435 1434 1432 1430 1429 1427 1426 1424 1423 1421 1419 1418 1416 1415
1494 1493 1493 1492 1492 1491 1491 1490 1489 1489 1488 1488 1487 1486 1485 1484 1484 1483 1482 1481 1480 1479 1478 1477 1475 1474 1473 1472 1471 1470 1469 1468 1466 1465 1464 1463 1461 1460 1459 1457 1456 1454 1453 1452 1450 1449 1447 1445 1444 1443 1441 1439 1438 1436 1434 1433 1432 1430 1428 1427 1425 1424 1423 1421 1419 1418 1416 1415 1413
1493 1492 1492 1492 1491 1490 1490 1489 1489 1488 1488 1487 1486 1485 1484 1484 1483 1482 1481 1480 1479 1478 1477 1476 1474 1474 1472 1471 1470 1469 1468 1466 1465 1464 1463 1461 1460 1459 1457 1456 1454 1453 1451 1450 1449 1447 1445 1444 1443 1441 1439 1438 1436 1434 1433 1431 1430 1428 1426 1425 1424 1422 1420 1419 1418 1416 1414 1413 1411
1492 1492 1491 1491 1490 1490 1489 1488 1488 1487 1487 1486 1485 1484 1484 1483 1482 1481 1480 1479 1478 1477 1476 1475 1474 1472 1471 1470 1469 1468 1466 1465 1464 1463 1461 1460 1459 1457 1456 1454 1453 1451 1450 1449 1447 1445 1444 1442 1441 1439 1438 1436 1434 1433 1431 1429 1428 1426 1424 1423 1421 1420 1418 1417 1416 1414 1413 1411 1409
1491 1491 1490 1490 1489 1489 1488 1488 1487 1486 1486 1485 1484 1484 1483 1482 1481 1480 1479 1478 1477 1476 1475 1474 1473 1471 1470 1469 1468 1466 1465 1464 1463 1461 1460 1459 1457 1456 1454 1453 1452 1450 1449 1447 1445 1444 1442 1440 1439 1437 1436 1434 1433 1431 1429 1427 1426 1424 1423 1421 1419 1418 1417 1415 1414 1412 1411 1409 1407
1490 1490 1489 1489 1489 1488 1487 1487 1486 1485 1485 1484 1483 1482 1482 1481 1480 1479 1478 1477 1476 1475 1474 1473 1471 1470 1469 1468 1466 1465 1464 1463 1461 1460 1459 1457 1456 1454 1453 1452 1450 1449 1447 1445 1444 1442 1440 1439 1437 1435 1434 1432 1430 1429 1427 1426 1424 1422 1420 1419 1418 1416 1415 1413 1412 1410 1409 1407 1405
1489 1489 1489 1488 1488 1487 1487 1486 1485 1484 1484 1483 1482 1481 1480 1480 1479 1478 1477 1476 1475 1474 1473 1471 1470 1469 1468 1466 1465 1464 1463 1461 1460 1459 1457 1456 1454 1453 1452 1450 1449 1447 1446 1444 1442 1441 1439 1437 1435 1434 1432 1430 1429 1427 1425 1424 1422 1420 1419 1417 1416 1414 1413 1411 1409 1408 1406 1404 1402
1489 1488 1488 1487 1487 1486 1486 1485 1484 1484 1483 1482 1481 1480 1479 1479 1478 1477 1476 1475 1474 1473 1471 1470 1469 1468 1466 1465 1464 1463 1461 1460 1459 1457 1456 1455 1453 1452 1450 1449 1447 1446 1444 1442 1441 1439 1437 1435 1434 1432 1430 1428 1426 1425 1424 1422 1420 1419 1417 1415 1414 1412 1411 1409 1407 1406 1404 1402 1400
1488 1487 1487 1486 1486 1485 1485 1484 1484 1483 1482 1481 1480 1479 1479 1478 1477 1476 1475 1474 1473 1471 1470 1469 1468 1466 1465 1464 1463 1461 1460 1459 1458 1456 1455 1453 1452 1450 1449 1447 1446 1444 1442 1441 1439 1437 1435 1434 1432 1430 1428 1426 1424 1423 1421 1420 1418 1417 1415 1414 1412 1410 1409 1407 1405 1404 1402 1400 1398
1487 1486 1486 1485 1485 1484 1484 1483 1482 1482 1481 1480 1479 1478 1478 1477 1475 1474 1474 1472 1471 1470 1469 1468 1467 1465 1464 1463 1461 1460 1459 1457 1456 1455 1453 1452 1450 1449 1447 1445 1444 1442 1440 1439 1437 1435 1434 1432 1430 1429 1427 1425 1423 1421 1419 1418 1416 1414 1413 1412 1410 1408 1407 1405 1403 1401 1400 1398 1396
1486 1485 1485 1484 1484 1484 1483 1482 1481 1480 1479 1479 1478 1477 1476 1475 1474 1473 1472 1471 1470 1469 1468 1467 1465 1464 1463 1461 1460 1459 1458 1456 1455 1453 1452 1450 1449 1447 1445 1444 1442 1440 1439 1437 1435 1434 1432 1430 1428 1426 1425 1423 1421 1419 1418 1416 1414 1413 1411 1409 1408 1406 1404 1403 1401 1399 1398 1395 1394
1485 1484 1484 1484 1483 1482 1482 1481 1480 1479 1478 1477 1477 1476 1475 1474 1473 1472 1471 1470 1469 1468 1467 1465 1464 1463 1462 1460 1459 1458 1456 1455 1453 1452 1450 1449 1447 1445 1444 1442 1440 1439 1437 1435 1433 1432 1430 1428 1426 1424 1423 1421 1419 1417 1415 1414 1412 1410 1409 1407 1405 1404 1402 1400 1399 1397 1395 1393 1391
1484 1483 1483 1482 1482 1481 1481 1480 1479 1478 1477 1476 1475 1475 1474 1473 1472 1471 1470 1469 1468 1467 1465 1464 1463 1462 1460 1459 1458 1456 1455 1453 1452 1450 1448 1447 1445 1443 1442 1440 1438 1437 1435 1434 1432 1430 1428 1426 1424 1423 1421 1419 1417 1415 1413 1411 1410 1408 1406 1405 1403 1401 1399 1398 1396 1394 1393 1391 1389
1483 1482 1482 1481 1481 1480 1479 1479 1478 1477 1476 1475 1474 1474 1473 1472 1471 1470 1469 1468 1467 1465 1464 1463 1462 1460 1459 1458 1456 1455 1453 1452 1450 1448 1447 1445 1443 1442 1440 1438 1437 1435 1433 1432 1430 1428 1426 1424 1423 1421 1419 1417 1415 1413 1411 1409 1407 1405 1404 1402 1400 1399 1397 1395 1394 1392 1390 1389 1387
1482 1481 1481 1480 1480 1479 1478 1478 1477 1476 1475 1474 1473 1472 1471 1470 1469 1469 1468 1467 1465 1464 1463 1462 1460 1459 1458 1456 1455 1453 1452 1450 1448 1447 1445 1443 1442 1440 1438 1437 1435 1433 1432 1430 1428 1426 1424 1423 1421 1419 1417 1414 1412 1410 1409 1407 1405 1403 1401 1399 1398 1396 1394 1393 1391 1390 1388 1386 1385
1481 1480 1480 1479 1479 1478 1477 1476 1475 1475 1474 1473 1472 1471 1470 1469 1469 1467 1466 1465 1464 1463 1462 1460 1459 1458 1456 1454 1453 1451 1450 1448 1446 1445 1443 1442 1440 1438 1437 1435 1433 1432 1430 1428 1427 1425 1423 1420 1418 1416 1414 1413 1410 1408 1406 1405 1403 1401 1399 1397 1395 1394 1392 1390 1389 1387 1386 1384 1383
1480 1479 1479 1478 1478 1477 1476 1475 1474 1474 1473 1472 1471 1470 1469 1468 1467 1466 1465 1464 1463 1461 1460 1459 1457 1456 1454 1453 1451 1449 1448 1446 1444 1443 1442 1440 1439 1437 1435 1433 1432 1430 1428 1427 1425 1423 1421 1419 1417 1414 1412 1410 1408 1406 1404 1402 1400 1399 1397 1394 1393 1391 1389 1388 1387 1385 1384 1382 1380
1479 1478 1478 1477 1477 1476 1475 1474 1474 1473 1472 1471 1470 1469 1468 1467 1466 1465 1464 1463 1461 1460 1459 1457 1456 1454 1453 1451 1449 1448 1446 1445 1443 1441 1440 1438 1437 1435 1434 1432 1430 1428 1426 1425 1423 1421 1419 1418 1415 1413 1411 1408 1406 1404 1402 1400 1398 1396 1394 1393 1390 1389 1387 1385 1384 1383 1382 1380 1379
1478 1477 1477 1476 1475 1475 1474 1473 1473 1472 1471 1470 1469 1468 1467 1466 1465 1464 1462 1461 1460 1459 1457 1455 1454 1452 1451 1449 1448 1446 1444 1443 1442 1440 1438 1436 1435 1433 1432 1430 1428 1426 1424 1423 1421 1419 1418 1416 1414 1412 1409 1407 1404 1402 1399 1398 1396 1394 1393 1390 1389 1387 1385 1383 1382 1380 1379 1378 1377
1477 1476 1476 1475 1474 1474 1473 1472 1471 1470 1469 1469 1468 1467 1465 1464 1464 1462 1461 1460 1458 1457 1455 1454 1452 1451 1449 1448 1446 1444 1443 1441 1440 1438 1437 1435 1433 1431 1429 1428 1426 1424 1423 1421 1419 1417 1415 1414 1412 1410 1408 1405 1403 1400 1398 1395 1394 1392 1390 1389 1387 1385 1384 1382 1380 1379 1377 1376 1374
1476 1475 1475 1474 1474 1473 1472 1471 1470 1469 1468 1467 1466 1465 1464 1463 1462 1461 1459 1458 1457 1455 1454 1452 1451 1449 1448 1446 1444 1443 1441 1440 1438 1436 1435 1433 1431 1429 1428 1426 1424 1422 1421 1419 1417 1415 1413 1411 1409 1407 1405 1403 1401 1398 1396 1394 1392 1390 1389 1387 1385 1384 1382 1381 1379 1377 1376 1374 1373
1475 1475 1474 1473 1472 1472 1471 1470 1469 1468 1467 1466 1465 1464 1463 1462 1460 1459 1458 1457 1455 1454 1452 1451 1449 1448 1446 1444 1443 1441 1440 1438 1436 1435 1433 1431 1429 1427 1425 1424 1422 1420 1419 1417 1415 1413 1411 1409 1407 1405 1403 1401 1399 1397 1394 1392 1390 1389 1387 1385 1384 1382 1381 1379 1378 1376 1374 1373 1371
1474 1474 1473 1472 1471 1471 1470 1469 1468 1467 1466 1465 1464 1463 1462 1460 1459 1458 1456 1455 1454 1452 1451 1449 1448 1446 1444 1443 1441 1439 1438 1436 1435 1433 1431 1429 1427 1425 1424 1422 1420 1418 1416 1414 1413 1410 1409 1406 1404 1403 1401 1399 1397 1395 1393 1391 1389 1387 1385 1384 1382 1381 1379 1378 1376 1374 1373 1371 1369
1474 1473 1472 1471 1470 1469 1469 1468 1467 1466 1465 1464 1463 1461 1460 1459 1458 1456 1455 1454 1452 1450 1449 1448 1446 1444 1443 1441 1440 1438 1436 1434 1433 1431 1429 1427 1425 1423 1421 1419 1418 1416 1414 1412 1410 1408 1406 1404 1402 1400 1398 1396 1394 1393 1391 1389 1387 1386 1384 1382 1381 1379 1378 1376 1374 1373 1371 1370 1368
1473 1472 1471 1470 1469 1469 1468 1467 1466 1465 1464 1463 1461 1460 1459 1458 1456 1455 1453 1452 1450 1449 1447 1446 1444 1443 1441 1439 1438 1436 1434 1433 1431 1429 1427 1425 1423 1421 1419 1417 1416 1414 1412 1410 1408 1406 1404 1402 1400 1398 1396 1394 1392 1390 1389 1387 1386 1384 1382 1381 1379 1377 1376 1374 1373 1371 1370 1368 1367
1471 1471 1470 1469 1468 1467 1466 1465 1464 1464 1462 1461 1460 1459 1458 1456 1455 1453 1452 1450 1449 1447 1446 1444 1443 1441 1439 1438 1436 1434 1432 1430 1429 1427 1425 1423 1421 1419 1417 1415 1414 1412 1410 1408 1406 1404 1402 1400 1398 1396 1394 1392 1390 1388 1387 1385 1384 1382 1381 1379 1377 1375 1374 1373 1371 1369 1368 1367 1365
1470 1469 1469 1468 1467 1466 1465 1464 1464 1462 1461 1460 1459 1457 1456 1454 1453 1452 1450 1449 1447 1446 1444 1443 1441 1439 1438 1436 1434 1432 1430 1428 1427 1425 1423 1421 1419 1417 1415 1414 1412 1410 1408 1406 1404 1402 1400 1398 1396 1394 1392 1390 1388 1387 1385 1384 1382 1381 1379 1377 1375 1374 1372 1371 1369 1368 1366 1365 1363
1469 1469 1468 1467 1466 1465 1464 1463 1462 1461 1460 1459 1457 1456 1454 1453 1452 1450 1449 1447 1445 1444 1443 1441 1439 1438 1436 1434 1432 1430 1428 1426 1424 1423 1421 1419 1417 1415 1413 1411 1410 1408 1406 1404 1402 1400 1398 1396 1394 1392 1390 1388 1387 1385 1384 1382 1380 1379 1377 1375 1373 1372 1370 1369 1368 1366 1364 1363 1362
1468 1468 1467 1466 1465 1464 1463 1462 1461 1460 1459 1457 1456 1454 1453 1452 1450 1449 1447 1445 1444 1442 1441 1439 1437 1436 1434 1432 1430 1428 1427 1425 1423 1421 1419 1417 1415 1413 1411 1409 1408 1406 1404 1402 1400 1398 1396 1394 1392 1390 1389 1387 1385 1384 1383 1381 1379 1377 1375 1373 1372 1370 1369 1367 1366 1364 1363 1361 1360
1467 1467 1466 1465 1464 1463 1462 1461 1459 1458 1457 1456 1454 1453 1451 1450 1449 1447 1445 1444 1442 1440 1439 1437 1436 1434 1432 1430 1428 1426 1425 1423 1421 1419 1417 1415 1414 1411 1409 1407 1405 1404 1402 1400 1398 1396 1394 1392 1390 1389 1387 1386 1384 1383 1381 1379 1377 1375 1373 1372 1370 1369 1367 1365 1364 1362 1361 1359 1358
1466 1465 1465 1464 1463 1462 1460 1459 1458 1457 1455 1454 1453 1452 1450 1449 1447 1445 1444 1442 1440 1439 1437 1435 1434 1432 1430 1428 1426 1424 1423 1421 1419 1417 1415 1413 1411 1409 1407 1405 1403 1401 1399 1398 1396 1394 1392 1391 1389 1388 1386 1385 1383 1381 1379 1378 1375 1374 1372 1370 1368 1367 1365 1364 1362 1361 1359 1358 1356
1465 1464 1464 1463 1461 1460 1459 1458 1457 1455 1454 1453 1451 1450 1449 1447 1445 1444 1442 1441 1439 1437 1435 1433 1431 1430 1428 1426 1424 1422 1420 1419 1418 1416 1414 1411 1409 1407 1405 1403 1400 1399 1397 1396 1394 1392 1391 1389 1388 1387 1385 1384 1382 1380 1378 1376 1374 1372 1371 1369 1367 1365 1364 1363 1361 1359 1357 1355 1354
1464 1463 1462 1461 1460 1459 1458 1457 1455 1454 1453 1451 1450 1449 1447 1446 1444 1442 1440 1439 1437 1435 1433 1431 1429 1428 1426 1424 1422 1420 1419 1417 1415 1414 1412 1409 1407 1405 1403 1401 1399 1397 1395 1394 1392 1391 1389 1388 1387 1386 1384 1383 1381 1379 1377 1375 1373 1371 1369 1368 1366 1364 1362 1360 1359 1357 1355 1353 1351
1463 1462 1461 1460 1459 1458 1457 1455 1454 1453 1452 1450 1449 1447 1445 1444 1442 1441 1439 1437 1435 1434 1432 1429 1428 1426 1424 1423 1420 1419 1416 1415 1413 1412 1410 1408 1405 1403 1401 1399 1397 1395 1394 1392 1391 1389 1388 1387 1386 1384 1383 1382 1380 1378 1376 1374 1372 1370 1368 1367 1365 1363 1361 1359 1357 1355 1353 1352 1350